Year,Month,Day,Hour,Minute,Value (Times are PST for temperature in C)
2019,08,18,00,00,16.00
2019,08,18,00,01,15.90
2019,08,18,00,02,15.90
2019,08,18,00,03,15.90
2019,08,18,00,04,15.90
2019,08,18,00,05,15.90
2019,08,18,00,06,15.80
2019,08,18,00,07,15.80
2019,08,18,00,08,15.80
2019,08,18,00,09,15.80
2019,08,18,00,10,15.80
2019,08,18,00,11,15.80
2019,08,18,00,12,15.80
2019,08,18,00,13,15.80
2019,08,18,00,14,15.80
2019,08,18,00,15,15.80
2019,08,18,00,16,15.80
2019,08,18,00,17,15.80
2019,08,18,00,18,15.80
2019,08,18,00,19,15.80
2019,08,18,00,20,15.80
2019,08,18,00,21,15.80
2019,08,18,00,22,15.80
2019,08,18,00,23,15.80
2019,08,18,00,24,15.80
2019,08,18,00,25,15.80
2019,08,18,00,26,15.80
2019,08,18,00,27,15.80
2019,08,18,00,28,15.80
2019,08,18,00,29,15.80
2019,08,18,00,30,15.80
2019,08,18,00,31,15.80
2019,08,18,00,32,15.80
2019,08,18,00,33,15.80
2019,08,18,00,34,15.80
2019,08,18,00,35,15.80
2019,08,18,00,36,15.80
2019,08,18,00,37,15.80
2019,08,18,00,38,15.80
2019,08,18,00,39,15.70
2019,08,18,00,40,15.70
2019,08,18,00,41,15.70
2019,08,18,00,42,15.60
2019,08,18,00,43,15.60
2019,08,18,00,44,15.60
2019,08,18,00,45,15.60
2019,08,18,00,46,15.60
2019,08,18,00,47,15.60
2019,08,18,00,48,15.60
2019,08,18,00,49,15.60
2019,08,18,00,50,15.60
2019,08,18,00,51,15.70
2019,08,18,00,52,15.70
2019,08,18,00,53,15.70
2019,08,18,00,54,15.70
2019,08,18,00,55,15.70
2019,08,18,00,56,15.70
2019,08,18,00,57,15.80
2019,08,18,00,58,15.80
2019,08,18,00,59,15.80
2019,08,18,01,00,15.80
2019,08,18,01,01,15.80
2019,08,18,01,02,15.80
2019,08,18,01,03,15.80
2019,08,18,01,04,15.70
2019,08,18,01,05,15.70
2019,08,18,01,06,15.70
2019,08,18,01,07,15.70
2019,08,18,01,08,15.70
2019,08,18,01,09,15.70
2019,08,18,01,10,15.70
2019,08,18,01,11,15.70
2019,08,18,01,12,15.60
2019,08,18,01,13,15.60
2019,08,18,01,14,15.60
2019,08,18,01,15,15.60
2019,08,18,01,16,15.60
2019,08,18,01,17,15.60
2019,08,18,01,18,15.60
2019,08,18,01,19,15.60
2019,08,18,01,20,15.60
2019,08,18,01,21,15.60
2019,08,18,01,22,15.50
2019,08,18,01,23,15.50
2019,08,18,01,24,15.50
2019,08,18,01,25,15.50
2019,08,18,01,26,15.50
2019,08,18,01,27,15.50
2019,08,18,01,28,15.50
2019,08,18,01,29,15.50
2019,08,18,01,30,15.50
2019,08,18,01,31,15.40
2019,08,18,01,32,15.40
2019,08,18,01,33,15.40
2019,08,18,01,34,15.40
2019,08,18,01,35,15.40
2019,08,18,01,36,15.40
2019,08,18,01,37,15.40
2019,08,18,01,38,15.40
2019,08,18,01,39,15.30
2019,08,18,01,40,15.30
2019,08,18,01,41,15.30
2019,08,18,01,42,15.30
2019,08,18,01,43,15.30
2019,08,18,01,44,15.30
2019,08,18,01,45,15.30
2019,08,18,01,46,15.30
2019,08,18,01,47,15.30
2019,08,18,01,48,15.30
2019,08,18,01,49,15.30
2019,08,18,01,50,15.30
2019,08,18,01,51,15.20
2019,08,18,01,52,15.20
2019,08,18,01,53,15.20
2019,08,18,01,54,15.20
2019,08,18,01,55,15.20
2019,08,18,01,56,15.20
2019,08,18,01,57,15.20
2019,08,18,01,58,15.20
2019,08,18,01,59,15.20
2019,08,18,02,00,15.20
2019,08,18,02,01,15.20
2019,08,18,02,02,15.10
2019,08,18,02,03,15.10
2019,08,18,02,04,15.10
2019,08,18,02,05,15.10
2019,08,18,02,06,15.10
2019,08,18,02,07,15.10
2019,08,18,02,08,15.10
2019,08,18,02,09,15.10
2019,08,18,02,10,15.10
2019,08,18,02,11,15.10
2019,08,18,02,12,15.10
2019,08,18,02,13,15.10
2019,08,18,02,14,15.10
2019,08,18,02,15,15.10
2019,08,18,02,16,15.10
2019,08,18,02,17,15.10
2019,08,18,02,18,15.10
2019,08,18,02,19,15.10
2019,08,18,02,20,15.10
2019,08,18,02,21,15.10
2019,08,18,02,22,15.10
2019,08,18,02,23,15.10
2019,08,18,02,24,15.10
2019,08,18,02,25,15.00
2019,08,18,02,26,15.00
2019,08,18,02,27,15.00
2019,08,18,02,28,15.00
2019,08,18,02,29,15.00
2019,08,18,02,30,15.00
2019,08,18,02,31,14.90
2019,08,18,02,32,14.90
2019,08,18,02,33,14.90
2019,08,18,02,34,14.90
2019,08,18,02,35,14.80
2019,08,18,02,36,14.80
2019,08,18,02,37,14.80
2019,08,18,02,38,14.80
2019,08,18,02,39,14.80
2019,08,18,02,40,14.70
2019,08,18,02,41,14.70
2019,08,18,02,42,14.70
2019,08,18,02,43,14.70
2019,08,18,02,44,14.70
2019,08,18,02,45,14.60
2019,08,18,02,46,14.60
2019,08,18,02,47,14.60
2019,08,18,02,48,14.60
2019,08,18,02,49,14.60
2019,08,18,02,50,14.60
2019,08,18,02,51,14.60
2019,08,18,02,52,14.60
2019,08,18,02,53,14.60
2019,08,18,02,54,14.60
2019,08,18,02,55,14.60
2019,08,18,02,56,14.60
2019,08,18,02,57,14.60
2019,08,18,02,58,14.60
2019,08,18,02,59,14.60
2019,08,18,03,00,14.70
2019,08,18,03,01,14.70
2019,08,18,03,02,14.70
2019,08,18,03,03,14.70
2019,08,18,03,04,14.70
2019,08,18,03,05,14.70
2019,08,18,03,06,14.70
2019,08,18,03,07,14.70
2019,08,18,03,08,14.70
2019,08,18,03,09,14.70
2019,08,18,03,10,14.70
2019,08,18,03,11,14.70
2019,08,18,03,12,14.70
2019,08,18,03,13,14.70
2019,08,18,03,14,14.70
2019,08,18,03,15,14.70
2019,08,18,03,16,14.70
2019,08,18,03,17,14.70
2019,08,18,03,18,14.70
2019,08,18,03,19,14.70
2019,08,18,03,20,14.70
2019,08,18,03,21,14.70
2019,08,18,03,22,14.80
2019,08,18,03,23,14.80
2019,08,18,03,24,14.80
2019,08,18,03,25,14.80
2019,08,18,03,26,14.70
2019,08,18,03,27,14.70
2019,08,18,03,28,14.70
2019,08,18,03,29,14.70
2019,08,18,03,30,14.70
2019,08,18,03,31,14.70
2019,08,18,03,32,14.70
2019,08,18,03,33,14.70
2019,08,18,03,34,14.70
2019,08,18,03,35,14.70
2019,08,18,03,36,14.70
2019,08,18,03,37,14.70
2019,08,18,03,38,14.70
2019,08,18,03,39,14.70
2019,08,18,03,40,14.70
2019,08,18,03,41,14.70
2019,08,18,03,42,14.70
2019,08,18,03,43,14.70
2019,08,18,03,44,14.70
2019,08,18,03,45,14.70
2019,08,18,03,46,14.70
2019,08,18,03,47,14.70
2019,08,18,03,48,14.70
2019,08,18,03,49,14.70
2019,08,18,03,50,14.70
2019,08,18,03,51,14.70
2019,08,18,03,52,14.70
2019,08,18,03,53,14.70
2019,08,18,03,54,14.70
2019,08,18,03,55,14.70
2019,08,18,03,56,14.70
2019,08,18,03,57,14.70
2019,08,18,03,58,14.70
2019,08,18,03,59,14.70
2019,08,18,04,00,14.70
2019,08,18,04,01,14.70
2019,08,18,04,02,14.70
2019,08,18,04,03,14.70
2019,08,18,04,04,14.70
2019,08,18,04,05,14.70
2019,08,18,04,06,14.70
2019,08,18,04,07,14.70
2019,08,18,04,08,14.70
2019,08,18,04,09,14.70
2019,08,18,04,10,14.70
2019,08,18,04,11,14.70
2019,08,18,04,12,14.70
2019,08,18,04,13,14.70
2019,08,18,04,14,14.70
2019,08,18,04,15,14.70
2019,08,18,04,16,14.70
2019,08,18,04,17,14.70
2019,08,18,04,18,14.60
2019,08,18,04,19,14.70
2019,08,18,04,20,14.60
2019,08,18,04,21,14.60
2019,08,18,04,22,14.60
2019,08,18,04,23,14.60
2019,08,18,04,24,14.70
2019,08,18,04,25,14.70
2019,08,18,04,26,14.70
2019,08,18,04,27,14.70
2019,08,18,04,28,14.70
2019,08,18,04,29,14.60
2019,08,18,04,30,14.60
2019,08,18,04,31,14.60
2019,08,18,04,32,14.60
2019,08,18,04,33,14.60
2019,08,18,04,34,14.60
2019,08,18,04,35,14.60
2019,08,18,04,36,14.60
2019,08,18,04,37,14.60
2019,08,18,04,38,14.60
2019,08,18,04,39,14.60
2019,08,18,04,40,14.60
2019,08,18,04,41,14.60
2019,08,18,04,42,14.60
2019,08,18,04,43,14.60
2019,08,18,04,44,14.60
2019,08,18,04,45,14.60
2019,08,18,04,46,14.60
2019,08,18,04,47,14.60
2019,08,18,04,48,14.60
2019,08,18,04,49,14.60
2019,08,18,04,50,14.60
2019,08,18,04,51,14.60
2019,08,18,04,52,14.60
2019,08,18,04,53,14.70
2019,08,18,04,54,14.70
2019,08,18,04,55,14.70
2019,08,18,04,56,14.70
2019,08,18,04,57,14.70
2019,08,18,04,58,14.70
2019,08,18,04,59,14.70
2019,08,18,05,00,14.70
2019,08,18,05,01,14.60
2019,08,18,05,02,14.60
2019,08,18,05,03,14.60
2019,08,18,05,04,14.60
2019,08,18,05,05,14.60
2019,08,18,05,06,14.60
2019,08,18,05,07,14.60
2019,08,18,05,08,14.60
2019,08,18,05,09,14.60
2019,08,18,05,10,14.60
2019,08,18,05,11,14.50
2019,08,18,05,12,14.50
2019,08,18,05,13,14.50
2019,08,18,05,14,14.40
2019,08,18,05,15,14.40
2019,08,18,05,16,14.40
2019,08,18,05,17,14.40
2019,08,18,05,18,14.40
2019,08,18,05,19,14.40
2019,08,18,05,20,14.40
2019,08,18,05,21,14.40
2019,08,18,05,22,14.40
2019,08,18,05,23,14.30
2019,08,18,05,24,14.40
2019,08,18,05,25,14.30
2019,08,18,05,26,14.30
2019,08,18,05,27,14.30
2019,08,18,05,28,14.30
2019,08,18,05,29,14.30
2019,08,18,05,30,14.30
2019,08,18,05,31,14.30
2019,08,18,05,32,14.30
2019,08,18,05,33,14.30
2019,08,18,05,34,14.30
2019,08,18,05,35,14.30
2019,08,18,05,36,14.30
2019,08,18,05,37,14.30
2019,08,18,05,38,14.30
2019,08,18,05,39,14.30
2019,08,18,05,40,14.30
2019,08,18,05,41,14.30
2019,08,18,05,42,14.30
2019,08,18,05,43,14.30
2019,08,18,05,44,14.30
2019,08,18,05,45,14.30
2019,08,18,05,46,14.30
2019,08,18,05,47,14.30
2019,08,18,05,48,14.30
2019,08,18,05,49,14.20
2019,08,18,05,50,14.20
2019,08,18,05,51,14.20
2019,08,18,05,52,14.10
2019,08,18,05,53,14.10
2019,08,18,05,54,14.10
2019,08,18,05,55,14.10
2019,08,18,05,56,14.00
2019,08,18,05,57,14.00
2019,08,18,05,58,14.00
2019,08,18,05,59,14.00
2019,08,18,06,00,14.00
2019,08,18,06,01,14.00
2019,08,18,06,02,14.00
2019,08,18,06,03,14.00
2019,08,18,06,04,14.00
2019,08,18,06,05,14.00
2019,08,18,06,06,14.00
2019,08,18,06,07,14.00
2019,08,18,06,08,14.00
2019,08,18,06,09,14.00
2019,08,18,06,10,14.00
2019,08,18,06,11,14.00
2019,08,18,06,12,14.00
2019,08,18,06,13,14.00
2019,08,18,06,14,14.10
2019,08,18,06,15,14.10
2019,08,18,06,16,14.00
2019,08,18,06,17,14.00
2019,08,18,06,18,14.00
2019,08,18,06,19,14.00
2019,08,18,06,20,14.00
2019,08,18,06,21,14.00
2019,08,18,06,22,14.00
2019,08,18,06,23,14.00
2019,08,18,06,24,14.00
2019,08,18,06,25,14.00
2019,08,18,06,26,14.00
2019,08,18,06,27,14.00
2019,08,18,09,16,15.30
2019,08,18,09,17,15.40
2019,08,18,09,18,15.40
2019,08,18,09,19,15.40
2019,08,18,09,20,15.50
2019,08,18,09,21,15.50
2019,08,18,09,22,15.50
2019,08,18,09,23,15.60
2019,08,18,09,24,15.60
2019,08,18,09,25,15.50
2019,08,18,09,26,15.50
2019,08,18,09,27,15.50
2019,08,18,09,28,15.50
2019,08,18,09,29,15.50
2019,08,18,09,30,15.50
2019,08,18,09,31,15.60
2019,08,18,09,32,15.60
2019,08,18,09,33,15.60
2019,08,18,09,34,15.60
2019,08,18,09,35,15.60
2019,08,18,09,36,15.60
2019,08,18,09,37,15.60
2019,08,18,09,38,15.60
2019,08,18,09,39,15.60
2019,08,18,09,40,15.50
2019,08,18,09,41,15.50
2019,08,18,09,42,15.40
2019,08,18,09,43,15.40
2019,08,18,09,44,15.40
2019,08,18,09,45,15.40
2019,08,18,09,46,15.40
2019,08,18,09,47,15.40
2019,08,18,09,48,15.30
2019,08,18,09,49,15.30
2019,08,18,09,50,15.30
2019,08,18,09,51,15.30
2019,08,18,09,52,15.30
2019,08,18,09,53,15.30
2019,08,18,09,54,15.40
2019,08,18,09,55,15.40
2019,08,18,09,56,15.40
2019,08,18,09,57,15.30
2019,08,18,09,58,15.30
2019,08,18,09,59,15.30
2019,08,18,10,00,15.30
2019,08,18,10,01,15.40
2019,08,18,10,02,15.40
2019,08,18,10,03,15.50
2019,08,18,10,04,15.50
2019,08,18,10,05,15.60
2019,08,18,10,06,15.60
2019,08,18,10,07,15.60
2019,08,18,10,08,15.60
2019,08,18,10,09,15.70
2019,08,18,10,10,15.70
2019,08,18,10,11,15.70
2019,08,18,10,12,15.70
2019,08,18,10,13,15.70
2019,08,18,10,14,15.70
2019,08,18,10,15,15.70
2019,08,18,10,16,15.60
2019,08,18,10,17,15.60
2019,08,18,10,18,15.60
2019,08,18,10,19,15.60
2019,08,18,10,20,15.60
2019,08,18,10,21,15.60
2019,08,18,10,22,15.60
2019,08,18,10,23,15.70
2019,08,18,10,24,15.70
2019,08,18,10,25,15.70
2019,08,18,10,26,15.70
2019,08,18,10,27,15.70
2019,08,18,10,28,15.70
2019,08,18,10,29,15.80
2019,08,18,10,30,15.80
2019,08,18,10,31,15.80
2019,08,18,10,32,15.80
2019,08,18,10,33,15.80
2019,08,18,10,34,15.80
2019,08,18,10,35,15.80
2019,08,18,10,36,15.80
2019,08,18,10,37,15.80
2019,08,18,10,38,15.80
2019,08,18,10,39,15.80
2019,08,18,10,40,15.80
2019,08,18,10,41,15.80
2019,08,18,10,42,15.90
2019,08,18,10,43,15.90
2019,08,18,10,44,15.90
2019,08,18,10,45,15.90
2019,08,18,10,46,15.90
2019,08,18,10,47,15.90
2019,08,18,10,48,15.90
2019,08,18,10,49,15.90
2019,08,18,10,50,16.00
2019,08,18,10,51,16.00
2019,08,18,10,52,16.10
2019,08,18,10,53,16.10
2019,08,18,10,54,16.10
2019,08,18,10,55,16.10
2019,08,18,10,56,16.10
2019,08,18,10,57,16.10
2019,08,18,10,58,16.10
2019,08,18,10,59,16.10
2019,08,18,11,00,16.10
2019,08,18,11,01,16.10
2019,08,18,11,02,16.10
2019,08,18,11,03,16.10
2019,08,18,11,04,16.20
2019,08,18,11,05,16.20
2019,08,18,11,06,16.20
2019,08,18,11,07,16.30
2019,08,18,11,08,16.30
2019,08,18,11,09,16.30
2019,08,18,11,10,16.30
2019,08,18,11,11,16.30
2019,08,18,11,12,16.30
2019,08,18,11,13,16.30
2019,08,18,11,14,16.30
2019,08,18,11,15,16.30
2019,08,18,11,16,16.30
2019,08,18,11,17,16.40
2019,08,18,11,18,16.40
2019,08,18,11,19,16.40
2019,08,18,11,20,16.40
2019,08,18,11,21,16.40
2019,08,18,11,22,16.40
2019,08,18,11,23,16.40
2019,08,18,11,24,16.40
2019,08,18,11,25,16.50
2019,08,18,11,26,16.60
2019,08,18,11,27,16.70
2019,08,18,11,28,16.80
2019,08,18,11,29,16.90
2019,08,18,11,30,17.10
2019,08,18,11,31,17.20
2019,08,18,11,32,17.30
2019,08,18,11,33,17.50
2019,08,18,11,34,17.60
2019,08,18,11,35,17.70
2019,08,18,11,36,17.70
2019,08,18,11,37,17.70
2019,08,18,11,38,17.80
2019,08,18,11,39,17.80
2019,08,18,11,40,17.80
2019,08,18,11,41,17.80
2019,08,18,11,42,17.90
2019,08,18,11,43,17.90
2019,08,18,11,44,17.90
2019,08,18,11,45,17.90
2019,08,18,11,46,17.90
2019,08,18,11,47,17.90
2019,08,18,11,48,17.90
2019,08,18,11,49,17.90
2019,08,18,11,50,18.00
2019,08,18,11,51,18.00
2019,08,18,11,52,18.00
2019,08,18,11,53,18.00
2019,08,18,11,54,18.10
2019,08,18,11,55,18.10
2019,08,18,11,56,18.10
2019,08,18,11,57,18.10
2019,08,18,11,58,18.10
2019,08,18,11,59,18.00
2019,08,18,12,00,18.00
2019,08,18,12,01,17.90
2019,08,18,12,02,17.80
2019,08,18,12,03,17.70
2019,08,18,12,04,17.70
2019,08,18,12,05,17.60
2019,08,18,12,06,17.60
2019,08,18,12,07,17.60
2019,08,18,12,08,17.60
2019,08,18,12,09,17.50
2019,08,18,12,10,17.50
2019,08,18,12,11,17.40
2019,08,18,12,12,17.40
2019,08,18,12,13,17.40
2019,08,18,12,14,17.40
2019,08,18,12,15,17.40
2019,08,18,12,16,17.30
2019,08,18,12,17,17.30
2019,08,18,12,18,17.30
2019,08,18,12,19,17.20
2019,08,18,12,20,17.20
2019,08,18,12,21,17.20
2019,08,18,12,22,17.20
2019,08,18,12,23,17.10
2019,08,18,12,24,17.10
2019,08,18,12,25,17.10
2019,08,18,12,26,17.10
2019,08,18,12,27,17.10
2019,08,18,12,28,17.10
2019,08,18,12,29,17.10
2019,08,18,12,30,17.10
2019,08,18,12,31,17.10
2019,08,18,12,32,17.10
2019,08,18,12,33,17.10
2019,08,18,12,34,17.20
2019,08,18,12,35,17.20
2019,08,18,12,36,17.20
2019,08,18,12,37,17.20
2019,08,18,12,38,17.20
2019,08,18,12,39,17.20
2019,08,18,12,40,17.20
2019,08,18,12,41,17.20
2019,08,18,12,42,17.20
2019,08,18,12,43,17.20
2019,08,18,12,44,17.30
2019,08,18,12,45,17.30
2019,08,18,12,46,17.30
2019,08,18,12,47,17.30
2019,08,18,12,48,17.30
2019,08,18,12,49,17.30
2019,08,18,12,50,17.30
2019,08,18,12,51,17.30
2019,08,18,12,52,17.40
2019,08,18,12,53,17.40
2019,08,18,12,54,17.40
2019,08,18,12,55,17.50
2019,08,18,12,56,17.50
2019,08,18,12,57,17.50
2019,08,18,12,58,17.50
2019,08,18,12,59,17.50
2019,08,18,13,00,17.50
2019,08,18,13,01,17.50
2019,08,18,13,02,17.60
2019,08,18,13,03,17.60
2019,08,18,13,04,17.60
2019,08,18,13,05,17.60
2019,08,18,13,06,17.70
2019,08,18,13,07,17.70
2019,08,18,13,08,17.70
2019,08,18,13,09,17.70
2019,08,18,13,10,17.70
2019,08,18,13,11,17.70
2019,08,18,13,12,17.70
2019,08,18,13,13,17.60
2019,08,18,13,14,17.60
2019,08,18,13,15,17.60
2019,08,18,13,16,17.70
2019,08,18,13,17,17.70
2019,08,18,13,18,17.80
2019,08,18,13,19,17.80
2019,08,18,13,20,17.80
2019,08,18,13,21,17.80
2019,08,18,13,22,17.80
2019,08,18,13,23,17.80
2019,08,18,13,24,17.80
2019,08,18,13,25,17.80
2019,08,18,13,26,17.80
2019,08,18,13,27,17.80
2019,08,18,13,28,17.80
2019,08,18,13,29,17.90
2019,08,18,13,30,17.90
2019,08,18,13,31,17.90
2019,08,18,13,32,17.90
2019,08,18,13,33,17.90
2019,08,18,13,34,17.80
2019,08,18,13,35,17.80
2019,08,18,13,36,17.80
2019,08,18,13,37,17.80
2019,08,18,13,38,17.80
2019,08,18,13,39,17.80
2019,08,18,13,40,17.70
2019,08,18,13,41,17.60
2019,08,18,13,42,17.50
2019,08,18,13,43,17.40
2019,08,18,13,44,17.40
2019,08,18,13,45,17.30
2019,08,18,13,46,17.30
2019,08,18,13,47,17.30
2019,08,18,13,48,17.20
2019,08,18,13,49,17.20
2019,08,18,13,50,17.10
2019,08,18,13,51,17.10
2019,08,18,13,52,17.00
2019,08,18,13,53,17.00
2019,08,18,13,54,16.90
2019,08,18,13,55,16.90
2019,08,18,13,56,16.80
2019,08,18,13,57,16.80
2019,08,18,13,58,16.70
2019,08,18,13,59,16.60
2019,08,18,14,00,16.60
2019,08,18,14,01,16.50
2019,08,18,14,02,16.40
2019,08,18,14,03,16.40
2019,08,18,14,04,16.30
2019,08,18,14,05,16.30
2019,08,18,14,06,16.20
2019,08,18,14,07,16.20
2019,08,18,14,08,16.20
2019,08,18,14,09,16.20
2019,08,18,14,10,16.20
2019,08,18,14,11,16.20
2019,08,18,14,12,16.20
2019,08,18,14,13,16.20
2019,08,18,14,14,16.20
2019,08,18,14,15,16.20
2019,08,18,14,16,16.20
2019,08,18,14,17,16.20
2019,08,18,14,18,16.10
2019,08,18,14,19,16.10
2019,08,18,14,20,16.10
2019,08,18,14,21,16.10
2019,08,18,14,22,16.10
2019,08,18,14,23,16.00
2019,08,18,14,24,16.00
2019,08,18,14,25,16.00
2019,08,18,14,26,15.90
2019,08,18,14,27,15.90
2019,08,18,14,28,15.90
2019,08,18,14,29,15.90
2019,08,18,14,30,15.90
2019,08,18,14,31,16.00
2019,08,18,14,32,16.10
2019,08,18,14,33,16.20
2019,08,18,14,34,16.20
2019,08,18,14,35,16.30
2019,08,18,14,36,16.40
2019,08,18,14,37,16.50
2019,08,18,14,38,16.60
2019,08,18,14,39,16.70
2019,08,18,14,40,16.70
2019,08,18,14,41,16.80
2019,08,18,14,42,16.90
2019,08,18,14,43,16.90
2019,08,18,14,44,17.00
2019,08,18,14,45,17.00
2019,08,18,14,46,17.10
2019,08,18,14,47,17.10
2019,08,18,14,48,17.10
2019,08,18,14,49,17.10
2019,08,18,14,50,17.10
2019,08,18,14,51,17.00
2019,08,18,14,52,16.90
2019,08,18,14,53,16.90
2019,08,18,14,54,16.90
2019,08,18,14,55,16.90
2019,08,18,14,56,16.90
2019,08,18,14,57,16.90
2019,08,18,14,58,16.90
2019,08,18,14,59,16.90
2019,08,18,15,00,17.00
2019,08,18,15,01,17.00
2019,08,18,15,02,17.10
2019,08,18,15,03,17.10
2019,08,18,15,04,17.20
2019,08,18,15,05,17.20
2019,08,18,15,06,17.20
2019,08,18,15,07,17.10
2019,08,18,15,08,17.10
2019,08,18,15,09,17.00
2019,08,18,15,10,17.00
2019,08,18,15,11,16.90
2019,08,18,15,12,16.80
2019,08,18,15,13,16.80
2019,08,18,15,14,16.80
2019,08,18,15,15,16.70
2019,08,18,15,16,16.70
2019,08,18,15,17,16.60
2019,08,18,15,18,16.60
2019,08,18,15,19,16.60
2019,08,18,15,20,16.60
2019,08,18,15,21,16.70
2019,08,18,15,22,16.80
2019,08,18,15,23,17.00
2019,08,18,15,24,17.20
2019,08,18,15,25,17.40
2019,08,18,15,26,17.50
2019,08,18,15,27,17.70
2019,08,18,15,28,17.90
2019,08,18,15,29,18.20
2019,08,18,15,30,18.40
2019,08,18,15,31,18.60
2019,08,18,15,32,18.80
2019,08,18,15,33,19.10
2019,08,18,15,34,19.30
2019,08,18,15,35,19.40
2019,08,18,15,36,19.60
2019,08,18,15,37,19.70
2019,08,18,15,38,19.80
2019,08,18,15,39,19.80
2019,08,18,15,40,19.90
2019,08,18,15,41,19.90
2019,08,18,15,42,20.00
2019,08,18,15,43,20.10
2019,08,18,15,44,20.10
2019,08,18,15,45,20.20
2019,08,18,15,46,20.20
2019,08,18,15,47,20.30
2019,08,18,15,48,20.30
2019,08,18,15,49,20.40
2019,08,18,15,50,20.50
2019,08,18,15,51,20.50
2019,08,18,15,52,20.50
2019,08,18,15,53,20.50
2019,08,18,15,54,20.50
2019,08,18,15,55,20.50
2019,08,18,15,56,20.50
2019,08,18,15,57,20.50
2019,08,18,15,58,20.50
2019,08,18,15,59,20.40
2019,08,18,16,00,20.40
2019,08,18,16,01,20.40
2019,08,18,16,02,20.40
2019,08,18,16,03,20.40
2019,08,18,16,04,20.50
2019,08,18,16,05,20.50
2019,08,18,16,06,20.50
2019,08,18,16,07,20.40
2019,08,18,16,08,20.40
2019,08,18,16,09,20.40
2019,08,18,16,10,20.40
2019,08,18,16,11,20.50
2019,08,18,16,12,20.50
2019,08,18,16,13,20.50
2019,08,18,16,14,20.50
2019,08,18,16,15,20.60
2019,08,18,16,16,20.60
2019,08,18,16,17,20.60
2019,08,18,16,18,20.60
2019,08,18,16,19,20.60
2019,08,18,16,20,20.60
2019,08,18,16,21,20.60
2019,08,18,16,22,20.60
2019,08,18,16,23,20.60
2019,08,18,16,24,20.60
2019,08,18,16,25,20.60
2019,08,18,16,26,20.60
2019,08,18,16,27,20.60
2019,08,18,16,28,20.60
2019,08,18,16,29,20.60
2019,08,18,16,30,20.60
2019,08,18,16,31,20.60
2019,08,18,16,32,20.60
2019,08,18,16,33,20.70
2019,08,18,16,34,20.70
2019,08,18,16,35,20.70
2019,08,18,16,36,20.70
2019,08,18,16,37,20.70
2019,08,18,16,38,20.70
2019,08,18,16,39,20.70
2019,08,18,16,40,20.70
2019,08,18,16,41,20.70
2019,08,18,16,42,20.70
2019,08,18,16,43,20.70
2019,08,18,16,44,20.70
2019,08,18,16,45,20.70
2019,08,18,16,46,20.70
2019,08,18,16,47,20.60
2019,08,18,16,48,20.60
2019,08,18,16,49,20.50
2019,08,18,16,50,20.40
2019,08,18,16,51,20.40
2019,08,18,16,52,20.40
2019,08,18,16,53,20.40
2019,08,18,16,54,20.40
2019,08,18,16,55,20.40
2019,08,18,16,56,20.40
2019,08,18,16,57,20.40
2019,08,18,16,58,20.40
2019,08,18,16,59,20.40
2019,08,18,17,00,20.40
2019,08,18,17,01,20.30
2019,08,18,17,02,20.30
2019,08,18,17,03,20.30
2019,08,18,17,04,20.30
2019,08,18,17,05,20.20
2019,08,18,17,06,20.20
2019,08,18,17,07,20.20
2019,08,18,17,08,20.10
2019,08,18,17,09,20.00
2019,08,18,17,10,20.00
2019,08,18,17,11,19.90
2019,08,18,17,12,19.90
2019,08,18,17,13,19.80
2019,08,18,17,14,19.80
2019,08,18,17,15,19.70
2019,08,18,17,16,19.70
2019,08,18,17,17,19.70
2019,08,18,17,18,19.70
2019,08,18,17,19,19.70
2019,08,18,17,20,19.70
2019,08,18,17,21,19.70
2019,08,18,17,22,19.70
2019,08,18,17,23,19.60
2019,08,18,17,24,19.60
2019,08,18,17,25,19.70
2019,08,18,17,26,19.70
2019,08,18,17,27,19.70
2019,08,18,17,28,19.70
2019,08,18,17,29,19.70
2019,08,18,17,30,19.70
2019,08,18,17,31,19.70
2019,08,18,17,32,19.70
2019,08,18,17,33,19.70
2019,08,18,17,34,19.70
2019,08,18,17,35,19.70
2019,08,18,17,36,19.60
2019,08,18,17,37,19.60
2019,08,18,17,38,19.60
2019,08,18,17,39,19.60
2019,08,18,17,40,19.60
2019,08,18,17,41,19.60
2019,08,18,17,42,19.60
2019,08,18,17,43,19.60
2019,08,18,17,44,19.70
2019,08,18,17,45,19.70
2019,08,18,17,46,19.70
2019,08,18,17,47,19.70
2019,08,18,17,48,19.70
2019,08,18,17,49,19.70
2019,08,18,17,50,19.70
2019,08,18,17,51,19.70
2019,08,18,17,52,19.70
2019,08,18,17,53,19.70
2019,08,18,17,54,19.70
2019,08,18,17,55,19.70
2019,08,18,17,56,19.70
2019,08,18,17,57,19.70
2019,08,18,17,58,19.70
2019,08,18,17,59,19.70
2019,08,18,18,00,19.70
2019,08,18,18,01,19.70
2019,08,18,18,02,19.70
2019,08,18,18,03,19.70
2019,08,18,18,04,19.80
2019,08,18,18,05,19.80
2019,08,18,18,06,19.80
2019,08,18,18,07,19.80
2019,08,18,18,08,19.90
2019,08,18,18,09,19.90
2019,08,18,18,10,19.90
2019,08,18,18,11,19.90
2019,08,18,18,12,19.90
2019,08,18,18,13,19.90
2019,08,18,18,14,19.90
2019,08,18,18,15,19.90
2019,08,18,18,16,19.80
2019,08,18,18,17,19.80
2019,08,18,18,18,19.70
2019,08,18,18,19,19.70
2019,08,18,18,20,19.70
2019,08,18,18,21,19.70
2019,08,18,18,22,19.60
2019,08,18,18,23,19.60
2019,08,18,18,24,19.60
2019,08,18,18,25,19.60
2019,08,18,18,26,19.60
2019,08,18,18,27,19.50
2019,08,18,18,28,19.50
2019,08,18,18,29,19.50
2019,08,18,18,30,19.50
2019,08,18,18,31,19.40
2019,08,18,18,32,19.40
2019,08,18,18,33,19.40
2019,08,18,18,34,19.40
2019,08,18,18,35,19.40
2019,08,18,18,36,19.40
2019,08,18,18,37,19.40
2019,08,18,18,38,19.40
2019,08,18,18,39,19.40
2019,08,18,18,40,19.40
2019,08,18,18,41,19.40
2019,08,18,18,42,19.40
2019,08,18,18,43,19.40
2019,08,18,18,44,19.30
2019,08,18,18,45,19.30
2019,08,18,18,46,19.30
2019,08,18,18,47,19.30
2019,08,18,18,48,19.30
2019,08,18,18,49,19.30
2019,08,18,18,50,19.30
2019,08,18,18,51,19.30
2019,08,18,18,52,19.30
2019,08,18,18,53,19.20
2019,08,18,18,54,19.20
2019,08,18,18,55,19.20
2019,08,18,18,56,19.10
2019,08,18,18,57,19.10
2019,08,18,18,58,19.10
2019,08,18,18,59,19.10
2019,08,18,19,00,19.10
2019,08,18,19,01,19.00
2019,08,18,19,02,19.00
2019,08,18,19,03,19.00
2019,08,18,19,04,18.90
2019,08,18,19,05,18.90
2019,08,18,19,06,18.90
2019,08,18,19,07,18.80
2019,08,18,19,08,18.80
2019,08,18,19,09,18.80
2019,08,18,19,10,18.80
2019,08,18,19,11,18.80
2019,08,18,19,12,18.80
2019,08,18,19,13,18.70
2019,08,18,19,14,18.70
2019,08,18,19,15,18.70
2019,08,18,19,16,18.70
2019,08,18,19,17,18.60
2019,08,18,19,18,18.60
2019,08,18,19,19,18.60
2019,08,18,19,20,18.60
2019,08,18,19,21,18.50
2019,08,18,19,22,18.50
2019,08,18,19,23,18.40
2019,08,18,19,24,18.40
2019,08,18,19,25,18.40
2019,08,18,19,26,18.40
2019,08,18,19,27,18.40
2019,08,18,19,28,18.40
2019,08,18,19,29,18.40
2019,08,18,19,30,18.30
2019,08,18,19,31,18.30
2019,08,18,19,32,18.30
2019,08,18,19,33,18.30
2019,08,18,19,34,18.30
2019,08,18,19,35,18.30
2019,08,18,19,36,18.30
2019,08,18,19,37,18.30
2019,08,18,19,38,18.30
2019,08,18,19,39,18.20
2019,08,18,19,40,18.20
2019,08,18,19,41,18.20
2019,08,18,19,42,18.20
2019,08,18,19,43,18.20
2019,08,18,19,44,18.20
2019,08,18,19,45,18.20
2019,08,18,19,46,18.20
2019,08,18,19,47,18.20
2019,08,18,19,48,18.20
2019,08,18,19,49,18.20
2019,08,18,19,50,18.20
2019,08,18,19,51,18.20
2019,08,18,19,52,18.20
2019,08,18,19,53,18.20
2019,08,18,19,54,18.20
2019,08,18,19,55,18.20
2019,08,18,19,56,18.20
2019,08,18,19,57,18.20
2019,08,18,19,58,18.20
2019,08,18,19,59,18.20
2019,08,18,20,00,18.20
2019,08,18,20,01,18.20
2019,08,18,20,02,18.20
2019,08,18,20,03,18.20
2019,08,18,20,04,18.20
2019,08,18,20,05,18.20
2019,08,18,20,06,18.20
2019,08,18,20,07,18.20